Location: Hohe Wand Waldeggerhaus
(47.8500°N, 16.0440°E)
Time: 05:24:08
(UTC+02:00)

Tianhe-1 - Visible Passes

Search period start: 18 June 2021 00:00
Search period end: 28 June 2021 00:00
Orbit: 375 x 386 km, 41.5° (Epoch: 18 June)

Date Brightness Start Highest point End Pass type
(mag) Time Alt. Az. Time Alt. Az. Time Alt. Az.
21 Jun 3.5 03:51:54 10° S 03:52:58 11° SSE 03:54:02 10° SE visible
23 Jun 3.0 03:26:43 14° S 03:27:29 15° SSE 03:29:26 10° ESE visible
24 Jun 2.5 04:00:27 11° SW 04:02:50 23° S 04:05:25 10° ESE visible
25 Jun 2.7 03:02:05 19° SSE 03:02:05 19° SSE 03:04:22 10° ESE visible
26 Jun 2.3 03:35:53 17° SW 03:37:23 25° S 03:40:02 10° ESE visible
27 Jun 2.9 02:37:37 19° SE 02:37:37 19° SE 02:39:04 10° ESE visible
27 Jun 2.4 04:10:13 10° WSW 04:12:46 23° S 04:15:20 10° SE visible
